This is the latest recevied weather packets stored in our database for station/object VE3TEJ. If no packets are shown the sender has not sent any weather packets the latest 10 day(s).
| Time | Temp. | Humidity | Pressure | Rain* | Wind** | Luminosity | Snow |
|---|---|---|---|---|---|---|---|
| 1777304078 | 17.22° C | 51% | 1019.5 hPa | 0 mm | - | - | - |
| 1777303778 | 17.22° C | 52% | 1019.6 hPa | 0 mm | - | - | - |
| 1777303476 | 17.22° C | 54% | 1019.5 hPa | 0 mm | - | - | - |
| 1777303177 | 17.22° C | 55% | 1019.6 hPa | 0 mm | - | - | - |
| 1777302877 | 17.22° C | 53% | 1019.9 hPa | 0 mm | - | - | - |
| 1777302578 | 17.22° C | 53% | 1020 hPa | 0 mm | - | - | - |
| 1777302278 | 16.67° C | 54% | 1020 hPa | 0 mm | - | - | - |
| 1777301978 | 16.67° C | 53% | 1020.1 hPa | 0 mm | - | - | - |
| 1777301678 | 16.11° C | 54% | 1020.2 hPa | 0 mm | - | - | - |
| 1777301378 | 16.11° C | 56% | 1020.3 hPa | 0 mm | - | - | - |
| 1777301078 | 16.11° C | 57% | 1020.2 hPa | 0 mm | - | - | - |
| 1777300778 | 16.67° C | 56% | 1020.5 hPa | 0 mm | - | - | - |
| 1777300478 | 16.11° C | 56% | 1020.4 hPa | 0 mm | - | - | - |
| 1777300178 | 16.11° C | 59% | 1020.6 hPa | 0 mm | - | - | - |
| 1777299876 | 15.56° C | 59% | 1020.4 hPa | 0 mm | - | - | - |
| 1777299578 | 15.56° C | 58% | 1020.5 hPa | 0 mm | - | - | - |
| 1777299278 | 15° C | 60% | 1020.4 hPa | 0 mm | - | - | - |
| 1777298978 | 14.44° C | 61% | 1020.5 hPa | 0 mm | - | - | - |
| 1777298678 | 14.44° C | 61% | 1020.6 hPa | 0 mm | - | - | - |
| 1777298376 | 14.44° C | 60% | 1020.7 hPa | 0 mm | - | - | - |
| 1777298076 | 14.44° C | 61% | 1021 hPa | 0 mm | - | - | - |
| 1777297778 | 14.44° C | 60% | 1020.7 hPa | 0 mm | - | - | - |
| 1777297476 | 15° C | 60% | 1020.8 hPa | 0 mm | - | - | - |
| 1777297176 | 14.44° C | 60% | 1020.7 hPa | 0 mm | - | - | - |
| 1777296876 | 14.44° C | 61% | 1020.7 hPa | 0 mm | - | - | - |
* Rain latest hour (hover to see other rain measurements)
** Current wind speed in m/s (hover to see current wind gust speed)